507P/Lemmon (2022)

Japanese version
Home page
Updated on July 25, 2025

---------------------------------------------------------------------

* Profile

Re-discovery Date October 10, 2023
Magnitude 20.2 mag
Re-discoverer David Rankin (Mt. Lemmon)

* Orbital Elements

                    Epoch = 2022 Dec.  7.0 TT
     T = 2022 Dec.  5.44656 TT        Peri. = 108.82178
     e = 0.5697458                    Node  = 233.40474 2000.0
     q = 2.7111175 AU                 Incl. =  17.10566
       a =  6.3011999 AU   n = 0.06231164   P =  15.82 years

* Magnitudes Graph

        m1 = 13.0 + 5 log d + 10.0 log r(t - 250)

---------------------------------------------------------------------

The orbital elements are printed on CBET 5548.
The magnitudes graphs are made with Comet for Windows.

---------------------------------------------------------------------

Copyright(C) Seiichi Yoshida (comet@aerith.net). All rights reserved.